Regional Weather Roundup
Issued by NWS Midland/Odessa, TX

Home | Current Version | Previous Version | Text Only | Print | Product List | Glossary On
Versions: 1 2 3 4 5 6 7 8 9 10 11 12 13 14 15 16 17 18 19 20 21 22 23 24 25 26 27 28 29 30 31 32 33 34 35 36 37 38 39 40 41 42 43 44 45 46 47 48 49 50
000
ASUS44 KMAF 271101
RWRMAF
MIDLAND AREA WEATHER ROUNDUP
NATIONAL WEATHER SERVICE MIDLAND TX
600 AM CDT TUE SEP 27 2016

...IN SOUTHWEST TEXAS AND SOUTHEAST NEW MEXICO...

CITY           SKY/WX    TMP DP  RH WIND       PRES   REMARKS
ALPINE         CLOUDY    49  48  99 CALM      30.34F
ANDREWS        DRIZZLE   57  57 100 W5        30.25F
ARTESIA        CLOUDY    54  54 100 SE5       30.25F
BIG SPRING     MOCLDY    58  53  86 SW3       30.26S
CARLSBAD       CLOUDY    53  52  96 S6        30.24F
DRYDEN           N/A     60  50  69 N13       30.19S
FORT STOCKTON  CLOUDY    52  50  93 W5        30.26F
GUAD PASS      CLOUDY    48  40  73 NE22      30.29F
HOBBS          CLOUDY    54  54 100 W3        30.27S
MARFA          CLOUDY   N/A N/A N/A CALM      30.29F
MIDLAND AIRPK  RAIN      57  50  79 W3        30.25F
MIDLAND INTL   CLOUDY    56  51  84 SW3       30.24F
ODESSA         CLOUDY    55  50  83 W6        30.25F
PECOS          CLOUDY    56  53  89 CALM        N/A
PRESIDIO       CLOUDY    59  51  75 CALM      30.22S
SEMINOLE       CLOUDY    57  53  85 CALM      30.27S
SNYDER           N/A     57  50  76 CALM      30.22F
WINK           CLOUDY    55  52  89 CALM      30.23F
$$
...OTHER STATIONS IN TEXAS...

CITY           SKY/WX    TMP DP  RH WIND       PRES   REMARKS
ABILENE        CLOUDY    58  55  90 W5        30.19S
AMARILLO       CLOUDY    50  38  63 W5        30.25S
AUSTIN         CLOUDY    68  64  87 N8        30.07F
BROWNSVILLE    MOCLDY    76  74  93 N8        29.93S
CORPUS CHRISTI CLOUDY    70  68  93 N14       29.99F
DALLAS FTW     CLOUDY    66  57  72 N8        30.10F
DEL RIO        CLOUDY    66  58  75 NW10      30.13S
EL PASO        CLOUDY    57  43  59 CALM      30.24F
HOUSTON INT    CLOUDY    73  70  90 N10       30.01S
LUBBOCK        CLOUDY    52  45  77 NW7       30.24S
SAN ANGELO     CLOUDY    63  49  60 NW7       30.18S
SAN ANTONIO    CLOUDY    66  61  84 N9        30.08S
WACO           CLOUDY    67  62  84 N5        30.10S
WICHITA FALLS  NOT AVBL
$$
...OTHER LOCATIONS IN NEW MEXICO...

CITY           SKY/WX    TMP DP  RH WIND       PRES   REMARKS
ALAMAGORDO     CLEAR     50  50 100 CALM        N/A
ALBUQUERQUE    CLOUDY    54  34  46 N8        30.31F
CANNON AFB     MOCLDY    52  41  65 NW7       30.28S
CLOVIS         CLEAR     46  37  71 NW7       30.27F
HOLLOMAN AFB   CLEAR     52  52 100 E6        30.25S
ROSWELL        CLOUDY    55  50  83 CALM      30.25F
RUIDOSO        CLOUDY    46  39  76 SW7       30.37S
SANTA FE       CLOUDY    41  33  73 N8        30.36F WCI  36
TRUTH OR CONSE CLOUDY    54  52  93 CALM      30.27F
TUCUMCARI      CLEAR     50  37  61 W8        30.25F
$$



USA.gov is the U.S. government's official web portal to all federal, state and local government web resources and services.